• Em Portugal
  • Lista de países
  • Para 7 dias
  • Temperatura da água
  • Mapas de satélite
  • Mapa do tempo
  • Widgets de tempo
  • user-avatar
    Iniciar Sessão

    Previsão horária em Nashavar

    Hoje, 22 Janeiro, Segunda-feira

    Tempo Temperatura Precipitação Vento Pressão Humidade
    00:00 +13°C° 0 mm 0 m/s 729 mmHg 20%
    01:00 +13°C° 0 mm 1 m/s 729 mmHg 20%
    02:00 +13°C° 0 mm 1 m/s 729 mmHg 21%
    03:00 +13°C° 0 mm 1 m/s 729 mmHg 21%
    04:00 +13°C° 0 mm 1 m/s 729 mmHg 21%
    05:00 +12°C° 0 mm 1 m/s 728 mmHg 22%
    06:00 +12°C° 0 mm 1 m/s 728 mmHg 21%
    07:00 +13°C° 0 mm 1 m/s 729 mmHg 21%
    08:00 +13°C° 0 mm 1 m/s 729 mmHg 20%
    09:00 +15°C° 0 mm 1 m/s 729 mmHg 18%
    10:00 +19°C° 0 mm 1 m/s 729 mmHg 15%
    11:00 +21°C° 0 mm 1 m/s 729 mmHg 12%
    12:00 +22°C° 0 mm 1 m/s 728 mmHg 12%
    13:00 +23°C° 0 mm 1 m/s 728 mmHg 11%
    14:00 +24°C° 0 mm 1 m/s 727 mmHg 11%
    15:00 +23°C° 0 mm 1 m/s 727 mmHg 13%
    16:00 +22°C° 0 mm 1 m/s 727 mmHg 15%
    17:00 +19°C° 0 mm 2 m/s 727 mmHg 21%
    18:00 +18°C° 0 mm 1 m/s 727 mmHg 23%
    19:00 +16°C° 0 mm 1 m/s 727 mmHg 26%
    20:00 +14°C° 0 mm 0 m/s 727 mmHg 28%
    21:00 +13°C° 0 mm 0 m/s 727 mmHg 28%
    22:00 +14°C° 0 mm 1 m/s 727 mmHg 27%
    23:00 +14°C° 0 mm 1 m/s 727 mmHg 27%

    Amanhã, 23 Janeiro, Terça-feira

    Tempo Temperatura Precipitação Vento Pressão Humidade
    00:00 +13°C° 0 mm 1 m/s 727 mmHg 27%
    01:00 +13°C° 0 mm 2 m/s 727 mmHg 26%
    02:00 +13°C° 0 mm 2 m/s 727 mmHg 26%
    03:00 +12°C° 0 mm 2 m/s 727 mmHg 25%
    04:00 +12°C° 0 mm 2 m/s 727 mmHg 23%
    05:00 +10°C° 0 mm 2 m/s 727 mmHg 22%
    06:00 +10°C° 0 mm 2 m/s 728 mmHg 22%
    07:00 +10°C° 0 mm 2 m/s 728 mmHg 21%
    08:00 +10°C° 0 mm 2 m/s 729 mmHg 20%
    09:00 +14°C° 0 mm 2 m/s 729 mmHg 17%
    10:00 +16°C° 0 mm 3 m/s 729 mmHg 15%
    11:00 +18°C° 0 mm 3 m/s 729 mmHg 12%
    12:00 +19°C° 0 mm 3 m/s 728 mmHg 12%
    13:00 +20°C° 0 mm 3 m/s 728 mmHg 11%
    14:00 +21°C° 0 mm 3 m/s 727 mmHg 10%
    15:00 +20°C° 0 mm 3 m/s 727 mmHg 12%
    16:00 +19°C° 0 mm 2 m/s 727 mmHg 13%
    17:00 +18°C° 0 mm 2 m/s 727 mmHg 14%
    18:00 +17°C° 0 mm 2 m/s 727 mmHg 15%
    19:00 +16°C° 0 mm 2 m/s 728 mmHg 16%
    20:00 +14°C° 0 mm 1 m/s 728 mmHg 16%
    21:00 +14°C° 0 mm 1 m/s 728 mmHg 17%
    22:00 +13°C° 0 mm 1 m/s 728 mmHg 17%
    23:00 +13°C° 0 mm 1 m/s 728 mmHg 18%

    Depois de amanhã, 24 Janeiro, Quarta-feira

    Tempo Temperatura Precipitação Vento Pressão Humidade
    00:00 +12°C° 0 mm 1 m/s 728 mmHg 18%
    01:00 +12°C° 0 mm 1 m/s 728 mmHg 18%
    02:00 +11°C° 0 mm 1 m/s 728 mmHg 19%
    03:00 +11°C° 0 mm 1 m/s 728 mmHg 19%
    04:00 +10°C° 0 mm 1 m/s 727 mmHg 19%
    05:00 +9°C° 0 mm 0 m/s 727 mmHg 20%
    06:00 +9°C° 0 mm 0 m/s 728 mmHg 20%
    07:00 +9°C° 0 mm 0 m/s 728 mmHg 20%
    08:00 +9°C° 0 mm 0 m/s 728 mmHg 21%
    09:00 +12°C° 0 mm 0 m/s 729 mmHg 18%
    10:00 +15°C° 0 mm 1 m/s 729 mmHg 15%
    11:00 +18°C° 0 mm 1 m/s 729 mmHg 12%
    12:00 +19°C° 0 mm 1 m/s 729 mmHg 12%
    13:00 +20°C° 0 mm 1 m/s 729 mmHg 12%
    14:00 +21°C° 0 mm 1 m/s 728 mmHg 11%
    15:00 +20°C° 0 mm 1 m/s 728 mmHg 13%
    16:00 +20°C° 0 mm 1 m/s 728 mmHg 15%
    17:00 +19°C° 0 mm 1 m/s 728 mmHg 17%
    18:00 +18°C° 0 mm 1 m/s 729 mmHg 18%
    19:00 +15°C° 0 mm 1 m/s 729 mmHg 20%
    20:00 +13°C° 0 mm 0 m/s 729 mmHg 22%
    21:00 +13°C° 0 mm 1 m/s 730 mmHg 22%
    22:00 +13°C° 0 mm 1 m/s 730 mmHg 22%
    23:00 +12°C° 0 mm 1 m/s 730 mmHg 22%

    25 Janeiro, Quinta-feira

    Tempo Temperatura Precipitação Vento Pressão Humidade
    00:00 +12°C° 0 mm 1 m/s 730 mmHg 22%
    01:00 +11°C° 0 mm 1 m/s 730 mmHg 22%
    02:00 +11°C° 0 mm 1 m/s 729 mmHg 22%
    03:00 +11°C° 0 mm 1 m/s 729 mmHg 22%
    04:00 +10°C° 0 mm 1 m/s 729 mmHg 22%
    05:00 +10°C° 0 mm 1 m/s 729 mmHg 21%
    06:00 +10°C° 0 mm 1 m/s 729 mmHg 21%
    07:00 +10°C° 0 mm 1 m/s 729 mmHg 21%
    08:00 +11°C° 0 mm 1 m/s 729 mmHg 21%
    09:00 +13°C° 0 mm 1 m/s 729 mmHg 18%
    10:00 +15°C° 0 mm 1 m/s 729 mmHg 15%
    11:00 +18°C° 0 mm 1 m/s 729 mmHg 12%
    12:00 +19°C° 0 mm 1 m/s 729 mmHg 11%
    13:00 +20°C° 0 mm 1 m/s 728 mmHg 10%
    14:00 +20°C° 0 mm 2 m/s 728 mmHg 10%
    15:00 +20°C° 0 mm 1 m/s 727 mmHg 11%
    16:00 +20°C° 0 mm 1 m/s 727 mmHg 13%
    17:00 +19°C° 0 mm 1 m/s 727 mmHg 15%
    18:00 +18°C° 0 mm 1 m/s 728 mmHg 15%
    19:00 +15°C° 0 mm 1 m/s 728 mmHg 16%
    20:00 +14°C° 0 mm 1 m/s 729 mmHg 16%
    21:00 +13°C° 0 mm 1 m/s 729 mmHg 17%
    22:00 +13°C° 0 mm 1 m/s 729 mmHg 17%
    23:00 +12°C° 0 mm 1 m/s 729 mmHg 18%

    26 Janeiro, Sexta-feira

    Tempo Temperatura Precipitação Vento Pressão Humidade
    00:00 +12°C° 0 mm 1 m/s 729 mmHg 18%
    01:00 +12°C° 0 mm 1 m/s 729 mmHg 19%
    02:00 +11°C° 0 mm 1 m/s 729 mmHg 19%
    03:00 +10°C° 0 mm 2 m/s 729 mmHg 20%
    04:00 +9°C° 0 mm 2 m/s 729 mmHg 20%
    05:00 +9°C° 0 mm 2 m/s 729 mmHg 21%
    06:00 +9°C° 0 mm 2 m/s 730 mmHg 22%
    07:00 +9°C° 0 mm 2 m/s 730 mmHg 22%
    08:00 +9°C° 0 mm 2 m/s 730 mmHg 23%
    09:00 +13°C° 0 mm 2 m/s 730 mmHg 20%
    10:00 +15°C° 0 mm 2 m/s 730 mmHg 17%
    11:00 +17°C° 0 mm 2 m/s 730 mmHg 14%
    12:00 +18°C° 0 mm 2 m/s 730 mmHg 13%
    13:00 +19°C° 0 mm 2 m/s 729 mmHg 12%
    14:00 +20°C° 0 mm 2 m/s 729 mmHg 11%
    15:00 +19°C° 0 mm 2 m/s 728 mmHg 13%
    16:00 +20°C° 0 mm 1 m/s 728 mmHg 15%
    17:00 +19°C° 0 mm 1 m/s 728 mmHg 17%
    18:00 +18°C° 0 mm 1 m/s 729 mmHg 17%
    19:00 +15°C° 0 mm 1 m/s 729 mmHg 18%
    20:00 +14°C° 0 mm 1 m/s 729 mmHg 19%
    21:00 +13°C° 0 mm 1 m/s 730 mmHg 19%
    22:00 +13°C° 0 mm 1 m/s 730 mmHg 20%
    23:00 +12°C° 0 mm 1 m/s 730 mmHg 20%

    27 Janeiro, Sábado

    Tempo Temperatura Precipitação Vento Pressão Humidade
    00:00 +12°C° 0 mm 1 m/s 729 mmHg 20%
    01:00 +11°C° 0 mm 1 m/s 729 mmHg 21%
    02:00 +11°C° 0 mm 1 m/s 729 mmHg 21%
    03:00 +11°C° 0 mm 1 m/s 729 mmHg 21%
    04:00 +10°C° 0 mm 1 m/s 729 mmHg 21%
    05:00 +10°C° 0 mm 1 m/s 729 mmHg 21%
    06:00 +10°C° 0 mm 1 m/s 729 mmHg 21%
    07:00 +10°C° 0 mm 1 m/s 729 mmHg 21%
    08:00 +10°C° 0 mm 1 m/s 730 mmHg 21%
    09:00 +12°C° 0 mm 1 m/s 730 mmHg 18%
    10:00 +15°C° 0 mm 1 m/s 730 mmHg 15%
    11:00 +18°C° 0 mm 1 m/s 730 mmHg 12%
    12:00 +19°C° 0 mm 1 m/s 729 mmHg 12%
    13:00 +20°C° 0 mm 1 m/s 729 mmHg 11%
    14:00 +21°C° 0 mm 1 m/s 728 mmHg 11%
    15:00 +20°C° 0 mm 1 m/s 728 mmHg 13%
    16:00 +20°C° 0 mm 1 m/s 728 mmHg 15%
    17:00 +19°C° 0 mm 1 m/s 728 mmHg 17%
    18:00 +18°C° 0 mm 1 m/s 728 mmHg 18%
    19:00 +15°C° 0 mm 1 m/s 729 mmHg 19%
    20:00 +13°C° 0 mm 1 m/s 729 mmHg 21%
    21:00 +13°C° 0 mm 1 m/s 729 mmHg 21%
    22:00 +12°C° 0 mm 1 m/s 730 mmHg 22%
    23:00 +12°C° 0 mm 1 m/s 730 mmHg 22%
    Mostrar mais